LHA3455 LEPA-EDDV

Flight info

Callsign LHA3455
Flight time N/A
Altitude 34000
Route MEROS DCT LAPIT DCT CHELY DCT LUMAS DCT SOSUR DCT SECON DCT ODIXU DCT MAXIR DCT LUSOL DCT BODRU DCT OKTET DCT IRMAR DCT KINES DCT VANAS DCT ESOKO DCT GODRA DCT LOKTA DCT TEDGO DCT HAREM DCT LOHRE DCT MASEK Z99 ELNAT P605 WERRA
Aircraft A320/M-SDE1E2FGIRWYZ/LB1

Departure

Time 2026-05-04 08:54
Airport Palma de Mallorca Airport (LEPA)

Arrival

Time N/A
Airport Hannover Airport (EDDV)
Time Latitude Longitude Altitude Speed Heading
2026-05-04 08:42 39.54826 2.73482 30 ft 0 kts 150°
2026-05-04 08:46 39.54824 2.73483 30 ft 0 kts 149°
2026-05-04 08:47 39.54805 2.73497 30 ft 7 kts 149°
2026-05-04 08:47 39.54759 2.73533 30 ft 8 kts 149°
2026-05-04 08:47 39.54709 2.73571 30 ft 8 kts 149°
2026-05-04 08:47 39.54665 2.73622 30 ft 9 kts 110°
2026-05-04 08:48 39.54680 2.73718 30 ft 17 kts 60°
2026-05-04 08:48 39.54752 2.73861 30 ft 19 kts 57°
2026-05-04 08:48 39.54820 2.73984 30 ft 12 kts 33°
2026-05-04 08:48 39.54903 2.73964 30 ft 12 kts 351°
2026-05-04 08:49 39.54981 2.73998 30 ft 12 kts 345°
2026-05-04 08:50 39.55761 2.73723 30 ft 21 kts 58°
2026-05-04 08:50 39.55842 2.73891 30 ft 19 kts 58°
2026-05-04 08:51 39.55913 2.74040 30 ft 20 kts 59°
2026-05-04 08:51 39.55987 2.74198 30 ft 20 kts 59°
2026-05-04 08:51 39.56099 2.74303 30 ft 17 kts 30°
2026-05-04 08:51 39.56132 2.74328 30 ft 0 kts 29°
2026-05-04 08:52 39.56138 2.74332 30 ft 1 kts 29°
2026-05-04 08:52 39.56146 2.74338 30 ft 1 kts 29°
2026-05-04 08:52 39.56156 2.74345 30 ft 1 kts 29°
2026-05-04 08:52 39.56168 2.74354 30 ft 2 kts 28°
2026-05-04 08:53 39.56184 2.74363 30 ft 4 kts 18°
2026-05-04 08:54 39.52905 2.67465 2917 ft 219 kts 237°
2026-05-04 08:55 39.52058 2.65801 3784 ft 226 kts 237°
2026-05-04 08:55 39.51197 2.64106 4497 ft 227 kts 238°
2026-05-04 08:55 39.50338 2.62409 4898 ft 228 kts 238°
2026-05-04 08:55 39.49256 2.60849 5026 ft 243 kts 215°
2026-05-04 08:57 39.37824 2.60634 7911 ft 292 kts 133°
2026-05-04 09:01 39.30065 2.97802 16472 ft 388 kts 56°
2026-05-04 09:01 39.31477 3.00767 17045 ft 391 kts 57°
2026-05-04 09:01 39.32341 3.02622 17388 ft 393 kts 57°
2026-05-04 09:01 39.34279 3.06842 18139 ft 397 kts 57°
2026-05-04 09:02 39.35659 3.09885 18655 ft 400 kts 57°
2026-05-04 09:02 39.37076 3.13025 19168 ft 403 kts 57°
2026-05-04 09:02 39.38474 3.16136 19658 ft 406 kts 57°
2026-05-04 09:02 39.39908 3.19335 20140 ft 409 kts 57°
2026-05-04 09:03 39.41327 3.22508 20609 ft 412 kts 57°
2026-05-04 09:03 39.42753 3.25702 21066 ft 415 kts 57°
2026-05-04 09:03 39.44227 3.28938 21515 ft 418 kts 56°
2026-05-04 09:03 39.45718 3.32155 21945 ft 420 kts 56°
2026-05-04 09:04 39.47222 3.35411 22372 ft 423 kts 56°
2026-05-04 09:04 39.48724 3.38667 22785 ft 426 kts 56°
2026-05-04 09:04 39.50257 3.42000 23193 ft 429 kts 56°
2026-05-04 09:04 39.51782 3.45321 23589 ft 431 kts 56°
2026-05-04 09:05 39.53311 3.48655 23979 ft 433 kts 56°
2026-05-04 09:05 39.54846 3.52005 24361 ft 436 kts 56°
2026-05-04 09:05 39.56390 3.55380 24737 ft 438 kts 56°
2026-05-04 09:05 39.57944 3.58780 25094 ft 441 kts 56°
2026-05-04 09:06 39.59499 3.62185 25451 ft 443 kts 56°
2026-05-04 09:07 39.70629 3.86673 27680 ft 458 kts 57°
2026-05-04 09:08 39.72238 3.90227 27965 ft 461 kts 57°
2026-05-04 09:08 39.73873 3.93847 28255 ft 463 kts 57°
2026-05-04 09:08 39.75500 3.97449 28540 ft 464 kts 57°
2026-05-04 09:08 39.77136 4.01077 28807 ft 466 kts 57°
2026-05-04 09:09 39.78775 4.04718 29073 ft 468 kts 57°
2026-05-04 09:09 39.80410 4.08351 29327 ft 470 kts 57°
2026-05-04 09:09 39.82058 4.11994 29582 ft 471 kts 55°
2026-05-04 09:09 39.83999 4.15467 29817 ft 469 kts 45°
2026-05-04 09:10 39.86319 4.18396 30135 ft 464 kts 36°
2026-05-04 09:10 39.88954 4.20756 30484 ft 459 kts 25°
2026-05-04 09:10 39.91828 4.22497 30822 ft 454 kts 16°
2026-05-04 09:10 39.94832 4.23588 31147 ft 449 kts
2026-05-04 09:11 39.97892 4.24316 31462 ft 448 kts
2026-05-04 09:11 40.00959 4.25034 31792 ft 447 kts
2026-05-04 09:11 40.04004 4.25750 32027 ft 447 kts
2026-05-04 09:12 40.10157 4.27199 32070 ft 450 kts
2026-05-04 09:14 40.34858 4.33040 32068 ft 452 kts
2026-05-04 09:14 40.41021 4.34505 32069 ft 452 kts
2026-05-04 09:15 40.47170 4.35968 32069 ft 452 kts
2026-05-04 09:15 40.53344 4.37440 32069 ft 452 kts
2026-05-04 09:17 40.81097 4.44091 32068 ft 452 kts
2026-05-04 09:18 40.87271 4.45579 32069 ft 452 kts
2026-05-04 09:18 40.93454 4.47073 32068 ft 452 kts
2026-05-04 09:19 40.99606 4.48565 32073 ft 452 kts
2026-05-04 09:19 41.05758 4.50060 32085 ft 451 kts
2026-05-04 09:20 41.11919 4.51559 32096 ft 449 kts
2026-05-04 09:20 41.18019 4.53045 32089 ft 448 kts
2026-05-04 09:21 41.24159 4.54544 32049 ft 447 kts
2026-05-04 09:21 41.30232 4.56029 32036 ft 447 kts
2026-05-04 09:22 41.36309 4.57518 32031 ft 447 kts
2026-05-04 09:22 41.42399 4.59014 32031 ft 447 kts
2026-05-04 09:23 41.48529 4.60521 32034 ft 447 kts
2026-05-04 09:23 41.54599 4.62017 32038 ft 447 kts
2026-05-04 09:25 41.78897 4.68853 32051 ft 451 kts 11°
2026-05-04 09:26 41.84883 4.71222 32049 ft 450 kts 11°
2026-05-04 09:26 41.90896 4.73605 32046 ft 450 kts 11°
2026-05-04 09:27 41.96891 4.75985 32048 ft 450 kts 11°
2026-05-04 09:27 42.02894 4.78374 32050 ft 451 kts 11°
2026-05-04 09:28 42.08878 4.80760 32052 ft 451 kts 11°
2026-05-04 09:28 42.14868 4.83153 32063 ft 450 kts 11°
2026-05-04 09:29 42.20857 4.85551 32076 ft 449 kts 11°
2026-05-04 09:29 42.26742 4.87912 32083 ft 448 kts 11°
2026-05-04 09:30 42.32696 4.90305 32081 ft 446 kts 11°
2026-05-04 09:30 42.38595 4.92680 32073 ft 444 kts 11°
2026-05-04 09:31 42.44507 4.95066 32065 ft 442 kts 10°
2026-05-04 09:31 42.50351 4.97427 32056 ft 440 kts 10°
2026-05-04 09:32 42.56208 4.99800 32050 ft 438 kts 10°
2026-05-04 09:34 42.79274 5.09183 32024 ft 438 kts 18°
2026-05-04 09:34 42.84433 5.13743 32029 ft 455 kts 36°
2026-05-04 09:35 42.88578 5.20367 32044 ft 465 kts 45°
2026-05-04 09:35 42.92523 5.27351 32035 ft 464 kts 45°
2026-05-04 09:37 43.08403 5.55531 32040 ft 473 kts 44°
2026-05-04 09:38 43.12622 5.62380 32088 ft 471 kts 40°
2026-05-04 09:38 43.16972 5.69069 32129 ft 473 kts 40°
2026-05-04 09:39 43.21336 5.75797 32155 ft 473 kts 40°
2026-05-04 09:39 43.25680 5.82510 32154 ft 473 kts 40°
2026-05-04 09:40 43.30062 5.89296 32143 ft 473 kts 40°
2026-05-04 09:40 43.34408 5.96030 32133 ft 472 kts 39°
2026-05-04 09:42 43.56638 6.05764 32119 ft 427 kts 357°
2026-05-04 09:43 43.62520 6.06357 32099 ft 426 kts 357°
2026-05-04 09:43 43.68411 6.06953 32089 ft 425 kts 357°
2026-05-04 09:44 43.74292 6.07582 32087 ft 427 kts 360°
2026-05-04 09:46 43.96842 6.21260 32105 ft 447 kts 18°
2026-05-04 09:46 44.02414 6.25076 32102 ft 446 kts 18°
2026-05-04 09:47 44.07970 6.28889 32101 ft 446 kts 18°
2026-05-04 09:49 44.30198 6.44220 32070 ft 447 kts 18°
2026-05-04 09:51 44.49550 6.57670 32142 ft 446 kts 18°
2026-05-04 09:51 44.55125 6.61562 32146 ft 447 kts 18°
2026-05-04 09:52 44.60691 6.65456 32151 ft 447 kts 19°
2026-05-04 09:52 44.66242 6.69349 32145 ft 447 kts 19°
2026-05-04 09:53 44.71798 6.73253 32146 ft 447 kts 19°
2026-05-04 09:53 44.77361 6.76994 32152 ft 442 kts 12°
2026-05-04 09:54 44.83225 6.78703 32160 ft 426 kts 355°
2026-05-04 09:54 44.89064 6.78442 32165 ft 421 kts 351°
2026-05-04 09:55 44.94883 6.78057 32160 ft 420 kts 351°
2026-05-04 09:55 45.00721 6.77672 32132 ft 421 kts 351°
2026-05-04 09:56 45.06583 6.77283 32100 ft 427 kts 351°
2026-05-04 09:56 45.12577 6.76885 32102 ft 435 kts 352°
2026-05-04 09:57 45.18675 6.76480 32154 ft 446 kts 352°
2026-05-04 09:57 45.24871 6.76070 32153 ft 447 kts 352°
2026-05-04 09:58 45.31054 6.75659 32153 ft 446 kts 352°
2026-05-04 09:58 45.37241 6.75246 32153 ft 446 kts 352°
2026-05-04 10:00 45.57673 6.84572 32168 ft 471 kts 25°
2026-05-04 10:00 45.60462 6.86893 32161 ft 470 kts 25°
2026-05-04 10:04 45.99503 7.19632 32124 ft 464 kts 24°
2026-05-04 10:04 46.05071 7.24351 32087 ft 462 kts 24°
2026-05-04 10:05 46.10583 7.29032 32051 ft 462 kts 25°
2026-05-04 10:05 46.15870 7.33533 32047 ft 462 kts 24°
2026-05-04 10:06 46.21278 7.38147 32050 ft 462 kts 25°
2026-05-04 10:06 46.26804 7.42874 32055 ft 463 kts 25°
2026-05-04 10:08 46.46158 7.59515 32074 ft 463 kts 25°
2026-05-04 10:08 46.51682 7.64290 32079 ft 463 kts 25°
2026-05-04 10:09 46.57193 7.69065 32072 ft 463 kts 25°
2026-05-04 10:09 46.62712 7.73947 32069 ft 463 kts 26°
2026-05-04 10:10 46.68170 7.78916 32062 ft 464 kts 26°
2026-05-04 10:10 46.73611 7.83864 32063 ft 464 kts 26°
2026-05-04 10:11 46.79097 7.88861 32068 ft 464 kts 26°
2026-05-04 10:11 46.84550 7.93839 32070 ft 464 kts 26°
2026-05-04 10:12 46.89998 7.98824 32069 ft 464 kts 26°
2026-05-04 10:12 46.95438 8.03813 32055 ft 465 kts 25°
2026-05-04 10:13 47.00942 8.08873 32043 ft 467 kts 24°
2026-05-04 10:13 47.06439 8.13938 32036 ft 470 kts 23°
2026-05-04 10:14 47.11779 8.18871 32056 ft 472 kts 23°
2026-05-04 10:16 47.34036 8.39566 32122 ft 474 kts 24°
2026-05-04 10:16 47.39565 8.44738 32117 ft 474 kts 24°
2026-05-04 10:17 47.45214 8.50037 32106 ft 473 kts 24°
2026-05-04 10:19 47.67384 8.70964 32074 ft 472 kts 24°
2026-05-04 10:19 47.72863 8.76169 32069 ft 472 kts 24°
2026-05-04 10:20 47.78401 8.81444 32068 ft 472 kts 24°
2026-05-04 10:20 47.83907 8.86702 32072 ft 472 kts 24°
2026-05-04 10:21 47.89418 8.91978 32054 ft 472 kts 24°
2026-05-04 10:21 47.94900 8.97240 32080 ft 471 kts 24°
2026-05-04 10:22 48.03129 9.05164 32105 ft 467 kts 24°
2026-05-04 10:23 48.08558 9.10408 32108 ft 463 kts 23°